GW5306 Weather Reports


time (UTC)temp
C
wind
direction
speed
KPH
gust
KPH
rain 1hr
cm
rain 24hr
cm
rain mn
cm
humidity
%
barometer
mb
20260504100447 30 259 3.2 3.2 0.00 0.00 0.00 51 1006.0
20260504081947 36 21 0.0 0.0 0.00 0.00 0.00 49 1006.0
20260504081446 36 129 9.7 11.3 0.00 0.00 0.00 50 1006.0
20260504080946 37 167 8.0 9.7 0.00 0.00 0.00 49 1007.0
20260504080448 36 241 3.2 4.8 0.00 0.00 0.00 49 1007.0
20260504050448 33 183 0.0 1.6 0.00 0.00 0.00 57 1010.0
20260504045946 33 202 1.6 1.6 0.00 0.00 0.00 57 1010.0
20260504045447 33 169 1.6 1.6 0.00 0.00 0.00 58 1010.0
20260504044948 32 168 3.2 4.8 0.00 0.00 0.00 60 1010.0
20260504044446 32 158 9.7 12.9 0.00 0.00 0.00 61 1010.0
20260504043947 33 184 6.4 9.7 0.00 0.00 0.00 59 1010.0
20260504043446 32 176 11.3 14.5 0.00 0.00 0.00 61 1010.0
20260504042947 32 134 4.8 6.4 0.00 0.00 0.00 62 1010.0
20260504042446 31 185 6.4 11.3 0.00 0.00 0.00 62 1010.0
20260504041946 32 200 4.8 9.7 0.00 0.00 0.00 62 1010.0
20260504041446 32 111 8.0 11.3 0.00 0.00 0.00 61 1010.0
20260504040946 32 175 4.8 4.8 0.00 0.00 0.00 58 1010.0
20260504040446 32 179 1.6 1.6 0.00 0.00 0.00 59 1010.0
20260504035946 32 101 0.0 0.0 0.00 0.00 0.00 60 1010.0
20260504035446 32 204 1.6 1.6 0.00 0.00 0.00 61 1010.0
20260504034947 32 143 6.4 6.4 0.00 0.00 0.00 60 1010.0
20260504034446 31 138 3.2 4.8 0.00 0.00 0.00 62 1010.0
20260504033947 32 184 0.0 1.6 0.00 0.00 0.00 61 1010.0
20260504033447 31 235 3.2 4.8 0.00 0.00 0.00 62 1011.0
20260504032946 31 246 1.6 1.6 0.00 0.00 0.00 62 1010.0
20260504032446 31 164 1.6 1.6 0.00 0.00 0.00 64 1010.0
20260504031950 31 183 1.6 3.2 0.00 0.00 0.00 63 1010.0
20260504031446 30 138 3.2 3.2 0.00 0.00 0.00 65 1010.0
20260504030946 30 249 3.2 3.2 0.00 0.00 0.00 66 1010.0
20260504030447 29 245 3.2 4.8 0.00 0.00 0.00 68 1010.0
20260504025946 30 159 3.2 4.8 0.00 0.00 0.00 66 1010.0
20260504025446 29 205 4.8 4.8 0.00 0.00 0.00 67 1010.0
20260504024947 28 178 3.2 4.8 0.00 0.00 0.00 69 1010.0
20260504024447 28 131 6.4 6.4 0.00 0.00 0.00 71 1010.0
20260504023946 28 140 0.0 1.6 0.00 0.00 0.00 71 1010.0
20260504023447 28 125 3.2 3.2 0.00 0.00 0.00 72 1010.0
20260504022946 28 181 0.0 0.0 0.00 0.00 0.00 71 1010.0
20260504022446 27 180 3.2 4.8 0.00 0.00 0.00 73 1010.0
20260504021946 27 155 0.0 1.6 0.00 0.00 0.00 73 1010.0
20260504021446 27 157 4.8 6.4 0.00 0.00 0.00 74 1010.0
20260504020947 27 159 3.2 3.2 0.00 0.00 0.00 75 1010.0
20260504020446 27 148 6.4 9.7 0.00 0.00 0.00 76 1010.0
20260504015947 27 125 6.4 11.3 0.00 0.00 0.00 76 1010.0
20260504015446 27 147 3.2 4.8 0.00 0.00 0.00 75 1009.0
20260504014946 26 167 6.4 6.4 0.00 0.00 0.00 76 1009.0
20260504014446 26 140 3.2 3.2 0.00 0.00 0.00 77 1009.0
20260504013946 26 121 0.0 0.0 0.00 0.00 0.00 76 1009.0
20260504013446 26 136 4.8 4.8 0.00 0.00 0.00 77 1009.0
20260504012946 26 128 4.8 4.8 0.00 0.00 0.00 76 1009.0
20260504012446 26 97 1.6 3.2 0.00 0.00 0.00 76 1009.0
20260504011947 26 97 3.2 4.8 0.00 0.00 0.00 77 1009.0
20260504011446 26 90 3.2 4.8 0.00 0.00 0.00 77 1009.0
20260504010946 26 79 1.6 1.6 0.00 0.00 0.00 78 1009.0
20260504010447 26 34 1.6 1.6 0.00 0.00 0.00 78 1009.0
20260504005947 26 79 0.0 1.6 0.00 0.00 0.00 78 1009.0
20260504005446 26 81 0.0 0.0 0.00 0.00 0.00 78 1009.0
20260504004946 26 65 0.0 0.0 0.00 0.00 0.00 79 1009.0
20260504004446 25 93 0.0 1.6 0.00 0.00 0.00 79 1009.0
20260504003946 25 56 8.0 12.9 0.00 0.00 0.00 80 1009.0
20260504003452 25 72 1.6 1.6 0.00 0.00 0.00 81 1008.0
20260504002946 25 42 3.2 4.8 0.00 0.00 0.00 81 1009.0
20260504002447 25 31 3.2 4.8 0.00 0.00 0.00 81 1008.0
20260504001946 25 47 1.6 1.6 0.00 0.00 0.00 81 1008.0
20260504001446 25 37 1.6 1.6 0.00 0.00 0.00 81 1008.0
20260504000946 25 17 3.2 4.8 0.00 0.00 0.00 81 1008.0
20260504000446 25 17 1.6 1.6 0.00 0.00 0.00 80 1008.0
20260503235946 26 72 3.2 3.2 0.00 0.00 0.00 78 1008.0
20260503235446 26 86 0.0 1.6 0.00 0.00 0.00 78 1008.0
20260503234946 26 107 3.2 4.8 0.00 0.00 0.00 78 1008.0
20260503234446 26 126 3.2 3.2 0.00 0.00 0.00 76 1008.0
20260503233946 26 143 1.6 1.6 0.00 0.00 0.00 75 1008.0
20260503233446 26 148 1.6 1.6 0.00 0.00 0.00 75 1008.0
20260503232947 26 148 3.2 3.2 0.00 0.00 0.00 75 1008.0
20260503232446 26 232 1.6 3.2 0.00 0.00 0.00 75 1008.0
20260503231946 26 233 0.0 0.0 0.00 0.00 0.00 75 1008.0
20260503231446 27 232 0.0 0.0 0.00 0.00 0.00 74 1008.0
20260503230946 27 232 0.0 0.0 0.00 0.00 0.00 74 1008.0
20260503230446 27 233 1.6 1.6 0.00 0.00 0.00 73 1008.0
20260503225946 27 233 0.0 1.6 0.00 0.00 0.00 73 1008.0
20260503225446 27 224 1.6 3.2 0.00 0.00 0.00 73 1008.0
20260503224946 27 240 0.0 1.6 0.00 0.00 0.00 74 1007.0
20260503224446 27 229 3.2 3.2 0.00 0.00 0.00 74 1007.0
20260503223946 27 235 1.6 3.2 0.00 0.00 0.00 74 1007.0
20260503223446 26 235 1.6 1.6 0.00 0.00 0.00 75 1007.0
20260503222946 26 225 3.2 4.8 0.00 0.00 0.00 75 1007.0
20260503222446 26 237 3.2 4.8 0.00 0.00 0.00 76 1007.0
20260503221946 26 236 1.6 1.6 0.00 0.00 0.00 76 1007.0
20260503221446 26 235 1.6 1.6 0.00 0.00 0.00 76 1007.0
20260503220947 26 183 0.0 0.0 0.00 0.00 0.00 76 1008.0
20260503220446 26 183 1.6 1.6 0.00 0.00 0.00 76 1008.0
20260503215946 26 183 0.0 0.0 0.00 0.00 0.00 76 1008.0
20260503215446 26 182 0.0 0.0 0.00 0.00 0.00 76 1008.0
20260503214946 26 183 0.0 1.6 0.00 0.00 0.00 75 1008.0
20260503214449 26 182 0.0 0.0 0.00 0.00 0.00 74 1008.0
20260503213946 26 182 0.0 0.0 0.00 0.00 0.00 75 1008.0
20260503213446 26 184 1.6 1.6 0.00 0.00 0.00 74 1008.0
20260503212947 26 185 0.0 0.0 0.00 0.00 0.00 75 1008.0
20260503212446 26 186 1.6 1.6 0.00 0.00 0.00 74 1008.0
20260503211946 26 191 1.6 1.6 0.00 0.00 0.00 75 1008.0
20260503211447 26 176 3.2 3.2 0.00 0.00 0.00 74 1008.0
20260503210946 26 244 1.6 1.6 0.00 0.00 0.00 74 1008.0
20260503210446 26 244 0.0 0.0 0.00 0.00 0.00 74 1008.0
20260503205947 26 243 0.0 0.0 0.00 0.00 0.00 74 1008.0
20260503205446 26 317 0.0 0.0 0.00 0.00 0.00 73 1009.0
20260503204946 26 317 0.0 0.0 0.00 0.00 0.00 74 1009.0
20260503204447 26 317 0.0 0.0 0.00 0.00 0.00 74 1009.0
20260503203946 26 269 1.6 3.2 0.00 0.00 0.00 73 1009.0
20260503203446 26 206 0.0 1.6 0.00 0.00 0.00 72 1009.0
20260503202946 26 196 1.6 1.6 0.00 0.00 0.00 73 1009.0
20260503202446 26 251 1.6 1.6 0.00 0.00 0.00 73 1009.0
20260503201947 26 237 1.6 3.2 0.00 0.00 0.00 73 1009.0
20260503201446 26 223 1.6 1.6 0.00 0.00 0.00 72 1009.0
20260503200946 26 185 0.0 1.6 0.00 0.00 0.00 72 1009.0
20260503200446 26 241 0.0 1.6 0.00 0.00 0.00 72 1009.0
20260503195946 26 282 1.6 3.2 0.00 0.00 0.00 72 1009.0
20260503195447 26 248 1.6 3.2 0.00 0.00 0.00 72 1009.0
20260503194946 26 239 3.2 3.2 0.00 0.00 0.00 72 1010.0
20260503194447 26 230 0.0 0.0 0.00 0.00 0.00 72 1010.0
20260503193947 26 230 0.0 1.6 0.00 0.00 0.00 72 1010.0
20260503193446 26 160 0.0 1.6 0.00 0.00 0.00 71 1010.0
20260503192946 26 160 0.0 0.0 0.00 0.00 0.00 71 1010.0
20260503192446 26 159 0.0 0.0 0.00 0.00 0.00 71 1010.0
20260503191521 26 158 1.6 1.6 0.00 0.00 0.00 71 1010.0
20260503190946 26 153 1.6 1.6 0.00 0.00 0.00 71 1010.0
20260503190446 26 147 1.6 1.6 0.00 0.00 0.00 72 1010.0
20260503185946 26 76 4.8 4.8 0.00 0.00 0.00 72 1010.0
20260503185446 26 100 1.6 1.6 0.00 0.00 0.00 72 1010.0
20260503184946 26 147 3.2 3.2 0.00 0.00 0.00 72 1010.0
20260503184446 26 162 1.6 1.6 0.00 0.00 0.00 72 1011.0
20260503183946 26 51 1.6 3.2 0.00 0.00 0.00 73 1011.0
20260503183446 26 75 4.8 9.7 0.00 0.00 0.00 73 1011.0
20260503182946 26 97 1.6 3.2 0.00 0.00 0.00 73 1011.0
20260503182446 26 104 0.0 1.6 0.00 0.00 0.00 75 1011.0
20260503181947 26 107 9.7 12.9 0.00 0.00 0.00 74 1011.0
20260503181447 26 32 9.7 14.5 0.00 0.00 0.00 73 1011.0
20260503180947 26 91 11.3 14.5 0.00 0.00 0.00 75 1011.0
20260503180446 26 72 11.3 16.1 0.00 0.00 0.00 76 1011.0
20260503175947 26 83 14.5 20.9 0.00 0.00 0.00 76 1011.0
20260503175447 26 53 16.1 22.5 0.00 0.00 0.00 76 1012.0
20260503174951 27 117 17.7 24.1 0.00 0.00 0.00 75 1011.0
20260503174446 27 133 12.9 16.1 0.00 0.00 0.00 75 1011.0
20260503173946 27 35 8.0 9.7 0.00 0.00 0.00 75 1011.0
20260503173446 27 111 14.5 20.9 0.00 0.00 0.00 75 1011.0
20260503172946 27 95 12.9 20.9 0.00 0.00 0.00 74 1011.0
20260503172447 27 38 8.0 16.1 0.00 0.00 0.00 72 1011.0
20260503171946 27 114 9.7 11.3 0.00 0.00 0.00 72 1010.0
20260503171446 27 96 9.7 12.9 0.00 0.00 0.00 73 1010.0
20260503170946 27 132 12.9 16.1 0.00 0.00 0.00 73 1010.0
20260503170446 27 116 11.3 12.9 0.00 0.00 0.00 73 1010.0
20260503150946 31 247 1.6 3.2 0.00 0.00 0.00 54 1007.0
20260503150447 31 199 3.2 3.2 0.00 0.00 0.00 54 1007.0
20260503130946 35 208 6.4 6.4 0.00 0.00 0.00 47 1005.0
20260503130449 35 199 4.8 6.4 0.00 0.00 0.00 46 1005.0
20260503110446 40 231 3.2 4.8 0.00 0.00 0.00 38 1004.0